User: anonymous   Login
Location: *
(48.4333°N, 5.0333°W)
Time: 16:54:42
(UTC+00:00)
Language:

Cosmos 1980 Rocket - Orbit

View from above orbital plane
View from above orbital plane
View from above satellite
View from above satellite

Ground track
Ground track

The orbit data is extracted from the following two-line orbital elements,

1 19650U 88102B   20196.33271789  .00000123  00000-0  86870-4 0  9997
2 19650  70.9975 173.3869 0016515 272.7891  87.1342 14.15790633634963
Epoch (UTC): 14 July 2020 07:59:06
Eccentricity: 0.0016515
inclination: 70.9975°
perigee height: 828 km
apogee height: 851 km
right ascension of ascending node: 173.3869°
argument of perigee: 272.7891°
revolutions per day: 14.15790633
mean anomaly at epoch: 87.1342°
orbit number at epoch: 63496

The dashed part of the orbit path shows where the satellite is in the earth's shadow,  

DLR